Location: Newark
(23.3970°S, 47.6010°W)
Time: 12:18:48
(UTC+00:00)

deb Explorer IX - Pass Details

Date: 22 February 2020
Orbit: 547 x 1100 km, 38.8° (Epoch: 29 March)

Event Time Altitude Azimuth Distance (km) Brightness Sun altitude
Rises 21:25:56 0° 359° (N) 3,242 ? 3.5°
Reaches altitude 10° 21:30:48 10° 37° (NE) 2,493 ? 2.5°
Maximum altitude 21:31:59 11° 49° (NE) 2,493 ? 2.2°
Drops below altitude 10° 21:33:11 10° 60° (ENE) 2,577 ? 1.9°
Sets 21:38:38 0° 96° (E) 3,693 ? 0.7°
